Wind_Speed
29 27 26 26 25 25 24 24 23 22 21 20 19 19 20 19 19 18 19 19 19 19 19 19 18 19 19 18 18 18 17 17 17 17 17 17 17 16 16 15 15 14 13 13 12 12 11 11 10 10 9 9 11 12 12 12 11 12 12 11 10 10 10 10 12 14 14 14 16 16 18 19 19 19 18 18 16 16 17 18 19 19 19 19 18
31 28 27 26 25 25 24 23 22 22 21 20 19 19 19 19 18 18 18 19 18 18 18 18 17 17 18 17 16 16 16 16 15 16 16 17 17 16 15 15 14 14 12 11 11 11 10 10 10 10 9 9 10 11 11 11 10 11 12 11 10 11 11 12 13 14 13 14 16 17 18 18 18 18 17 17 15 15 16 18 19 19 19 19 19
30 28 27 26 25 25 24 23 22 21 21 20 19 19 19 19 18 18 17 18 18 17 17 17 17 16 16 16 15 15 15 15 14 14 15 15 15 15 15 15 14 13 12 9 8 9 10 10 10 10 10 10 10 10 11 10 11 11 12 11 11 11 11 12 12 12 12 15 17 18 18 17 17 17 16 15 15 16 17 17 18 19 19 19 19
27 28 27 26 26 24 24 23 22 21 21 21 20 19 19 19 18 17 17 17 17 17 17 16 16 15 15 14 14 14 14 14 13 13 13 14 14 14 14 14 14 13 12 10 9 8 9 9 9 10 11 11 11 11 11 11 12 12 13 13 12 11 10 10 10 10 11 15 18 18 18 16 15 14 14 14 15 16 16 17 17 17 18 18 19
26 28 27 27 26 25 24 23 22 22 22 21 20 20 19 19 18 17 16 17 17 17 17 16 15 14 13 12 13 12 12 12 12 11 12 12 12 12 12 13 13 13 12 11 10 6 6 8 9 10 11 12 12 12 12 12 13 14 15 14 13 11 10 9 8 7 9 15 16 17 19 16 13 11 12 14 14 16 16 16 16 16 17 18 18
25 27 27 28 26 25 24 23 22 22 22 21 20 20 19 19 18 17 16 16 16 16 16 15 14 14 13 12 12 11 10 10 10 10 10 11 11 11 11 11 11 12 11 11 11 7 6 8 9 10 11 12 12 12 13 14 15 17 16 15 13 11 9 8 7 6 8 15 15 17 19 17 15 11 11 13 14 14 16 16 16 15 15 17 18
24 26 27 27 26 25 23 23 22 21 22 21 20 19 19 18 18 17 15 15 15 15 15 15 14 13 13 13 13 11 10 9 9 10 10 9 9 9 10 10 9 10 10 10 10 7 6 7 9 10 10 12 13 13 14 15 17 18 17 15 13 11 9 7 7 5 7 14 14 17 18 17 16 12 10 12 14 14 15 15 15 15 14 15 17
25 26 26 26 25 25 23 23 22 22 22 20 20 19 19 18 18 17 15 15 14 14 14 14 13 13 14 13 13 12 11 11 11 11 10 9 8 8 8 8 9 9 9 9 9 7 5 4 7 8 8 11 13 14 15 17 18 18 17 16 14 12 9 7 6 4 7 13 12 14 15 15 16 13 10 11 13 13 13 14 14 14 14 14 16
26 26 26 26 25 24 23 23 23 22 21 20 19 19 19 18 18 17 15 15 14 13 13 13 12 13 14 13 13 13 13 13 12 11 10 9 8 7 6 6 7 8 7 7 7 6 5 3 5 6 6 9 13 14 16 18 19 18 17 16 14 12 10 8 7 5 9 11 10 12 12 11 13 12 10 9 11 12 12 12 13 13 13 14 15
26 26 26 25 24 23 22 22 22 22 21 20 19 19 19 19 18 17 16 15 14 13 13 12 12 13 13 13 13 14 14 14 13 12 11 9 8 7 6 6 6 7 6 5 5 5 4 2 3 4 5 8 12 15 18 18 18 18 18 16 14 12 10 9 7 7 9 8 9 10 9 9 11 10 9 8 9 11 11 11 11 12 13 14 14
26 26 26 25 24 22 22 22 22 21 21 20 20 20 20 19 18 17 16 15 14 13 13 13 13 13 13 13 14 14 14 13 12 11 11 10 8 8 7 7 7 7 7 7 6 6 5 2 2 4 4 6 11 15 19 20 19 19 18 16 14 11 10 9 8 8 7 7 8 7 7 7 8 8 7 7 7 9 11 10 10 11 12 13 13
26 27 26 25 24 22 22 21 21 21 22 22 21 21 21 20 19 18 17 16 15 14 14 13 13 13 13 13 14 13 12 11 11 10 10 10 9 8 8 7 7 6 7 7 7 6 5 2 2 2 3 6 9 14 18 21 21 19 18 16 13 11 11 8 8 7 6 7 7 5 5 6 6 5 5 7 7 8 10 10 9 10 11 12 12
28 27 26 26 24 22 21 21 21 21 22 22 22 22 22 21 20 19 18 18 16 15 15 14 14 14 13 13 13 13 11 10 9 9 9 9 8 8 8 8 7 6 6 6 6 6 5 4 3 2 2 4 8 11 16 22 23 20 19 15 12 10 9 8 8 6 6 6 5 4 4 5 5 4 5 6 7 7 8 9 9 9 11 11 11
27 27 26 25 24 22 21 20 20 21 22 22 22 22 22 21 21 20 19 18 17 16 15 15 14 14 13 13 12 11 10 9 9 8 8 8 8 8 7 7 7 6 6 6 6 7 6 4 2 2 3 4 7 9 13 21 24 21 19 16 12 10 8 8 7 6 6 5 4 3 4 4 4 4 6 6 7 7 7 8 8 9 10 10 11
27 27 27 26 25 23 21 20 20 20 21 21 21 21 21 21 20 20 19 18 17 16 16 15 14 14 13 13 12 11 10 9 8 8 7 7 7 7 7 6 6 6 6 6 6 6 6 6 4 2 3 4 6 9 11 19 25 22 19 16 12 11 9 8 7 6 5 4 3 2 3 4 4 3 6 6 6 6 7 8 8 8 9 10 11
27 28 27 26 25 23 21 20 19 19 20 21 21 21 21 20 20 19 19 18 17 16 16 15 14 14 13 13 12 11 10 9 8 8 7 7 6 6 5 5 5 6 6 6 6 5 5 5 5 5 3 3 5 8 10 16 25 23 19 17 13 12 10 8 7 5 4 3 2 1 1 2 3 3 6 6 6 5 6 7 8 7 8 9 11
26 27 27 26 25 23 22 21 19 19 19 20 20 20 20 20 19 19 18 17 16 16 15 15 14 14 13 13 12 11 10 9 8 8 7 7 6 5 4 4 5 5 6 6 5 4 5 5 5 5 4 3 5 8 10 15 24 23 19 17 14 13 10 8 7 5 4 2 1 1 1 1 1 4 6 6 6 5 5 7 7 7 7 8 10
24 26 26 25 24 23 22 21 20 19 19 19 19 19 19 19 19 18 17 16 15 15 15 14 14 13 13 12 12 12 11 10 9 8 7 6 6 5 4 4 5 5 4 4 4 4 4 5 5 4 4 4 6 9 10 15 25 23 19 17 14 13 11 9 7 5 3 1 1 2 2 1 1 4 6 6 6 5 5 6 7 7 7 7 9
22 23 24 23 22 22 21 20 19 19 19 19 18 18 18 18 18 17 16 15 14 14 14 13 13 12 13 12 12 12 11 10 9 8 7 6 5 5 4 4 4 4 3 3 4 4 4 4 4 4 4 5 7 10 12 17 26 23 19 16 13 14 12 9 6 5 3 2 2 2 2 1 1 4 5 6 7 6 5 5 6 7 6 6 7
20 20 21 21 20 20 19 18 18 18 18 18 18 17 17 16 16 15 15 14 13 13 13 13 12 12 12 12 11 11 10 9 9 8 6 6 5 5 4 4 4 4 3 3 3 3 4 4 4 4 4 5 8 12 13 20 26 22 18 15 12 13 12 9 6 5 4 2 2 3 3 2 0 2 4 6 7 6 6 5 6 6 7 6 6
19 19 19 18 18 18 17 17 17 16 16 16 16 16 16 15 15 14 13 13 13 13 13 12 12 12 12 11 11 10 9 8 8 7 6 6 6 6 4 4 4 4 3 3 2 2 3 5 4 4 6 6 10 13 15 22 26 21 18 15 11 12 11 9 6 5 4 3 2 4 3 2 1 2 4 6 6 6 6 5 6 6 7 6 6
20 19 17 17 17 17 16 15 15 15 15 15 15 15 15 14 13 13 12 12 12 12 12 12 11 11 10 10 10 10 9 8 7 6 6 6 7 6 4 4 5 5 4 2 2 2 3 5 5 5 8 9 11 14 16 23 25 21 19 14 10 11 10 9 6 5 4 2 2 3 3 3 2 1 4 6 7 6 6 5 6 6 6 6 5
21 19 17 17 16 17 15 15 15 14 14 13 14 13 13 13 13 12 12 12 12 12 12 11 11 9 9 9 9 9 8 7 7 6 6 6 7 6 5 5 5 6 5 3 3 3 4 6 6 8 11 13 14 15 17 23 25 22 19 14 9 10 9 8 6 4 3 1 2 3 4 3 2 1 4 6 7 7 6 6 6 5 5 6 5
19 18 17 16 16 17 16 15 14 14 13 13 13 12 12 12 12 12 12 12 12 12 12 11 10 9 9 8 8 8 7 7 6 7 7 6 6 6 5 5 7 6 5 4 4 4 6 8 8 10 15 16 16 16 16 21 24 22 19 13 9 8 8 7 5 3 2 0 2 4 4 4 2 1 4 6 7 7 6 6 6 5 5 5 4
17 17 17 17 16 15 14 14 13 13 13 13 13 12 12 12 13 13 13 13 13 12 12 11 10 10 9 8 8 8 8 7 7 6 6 5 5 6 5 5 7 7 7 6 5 5 6 8 9 12 15 16 16 16 16 18 20 20 18 14 9 7 7 6 3 2 2 1 3 4 4 3 2 1 3 5 7 9 7 6 7 6 5 5 4
20 19 18 17 16 14 14 14 13 14 14 14 14 13 13 13 13 14 14 14 14 13 11 11 11 10 9 8 8 9 9 8 7 6 6 5 5 6 5 5 6 7 7 7 7 7 7 9 11 13 15 14 15 16 17 17 16 15 14 13 9 6 6 5 2 1 1 2 3 3 3 3 3 2 3 3 5 8 8 7 7 7 6 5 4
22 21 19 17 16 14 13 14 13 14 15 15 14 13 13 14 14 14 14 14 14 14 12 12 11 10 10 9 9 9 10 8 8 7 6 6 6 7 6 5 6 6 7 6 8 8 9 10 12 15 15 13 14 16 17 17 15 13 12 12 8 5 6 4 2 2 2 3 3 2 2 3 4 4 4 5 4 6 7 7 7 7 6 6 5
22 21 17 16 15 14 13 14 14 15 15 15 14 13 13 14 15 15 15 14 14 14 13 13 12 12 12 12 10 10 11 10 10 9 7 8 8 8 7 7 7 7 7 7 8 10 10 10 12 15 15 12 13 16 17 16 15 13 12 10 7 6 6 4 4 4 3 3 2 1 1 3 3 4 4 4 5 5 6 6 7 7 7 6 6
23 22 18 16 16 15 14 14 15 15 14 14 13 13 13 14 15 15 15 15 14 15 14 14 13 13 14 14 13 12 12 12 12 11 10 10 9 8 8 8 9 8 9 8 9 10 10 10 11 14 13 11 12 15 15 14 13 12 11 10 8 6 5 5 6 5 4 3 2 1 1 2 2 3 3 3 4 5 6 7 8 7 7 7 7
24 22 20 20 20 18 16 15 15 14 13 13 12 12 11 12 14 13 13 13 14 15 15 14 13 14 16 16 15 14 13 13 13 13 12 11 10 9 9 9 9 9 8 8 9 10 10 10 11 11 13 12 11 12 12 10 11 11 10 10 9 7 7 6 6 6 5 5 3 0 1 1 1 2 2 2 2 3 4 7 7 7 7 8 8
24 22 22 23 22 19 17 16 15 13 12 10 10 10 9 10 11 11 11 11 13 16 15 13 12 15 17 16 15 14 13 14 15 15 13 12 11 11 10 10 10 9 8 7 8 9 9 10 9 10 12 12 11 10 11 11 11 11 10 11 12 9 8 8 7 7 6 5 3 1 1 2 1 1 1 2 2 2 2 4 5 5 5 6 8
24 23 23 22 22 20 17 15 13 12 11 9 8 7 7 7 8 9 10 10 12 14 13 11 11 14 15 15 15 14 14 15 15 15 13 12 13 12 9 9 10 9 7 7 8 8 9 9 8 9 10 12 11 11 13 14 12 13 14 13 13 11 8 9 8 6 7 6 4 2 0 1 1 1 1 1 1 1 1 2 2 3 3 4 5
24 24 22 21 20 19 18 15 13 12 11 9 7 6 6 6 5 6 7 8 10 12 12 11 10 12 14 14 15 14 14 15 16 15 13 13 13 12 9 9 9 9 8 8 9 10 10 9 9 9 10 11 12 12 13 14 12 15 17 14 14 12 9 9 8 6 7 7 5 3 2 1 1 1 1 2 1 0 0 1 2 2 3 3 3
25 24 21 20 20 19 18 16 15 13 11 9 7 6 6 6 5 5 5 6 7 10 12 11 11 12 13 15 15 15 15 15 15 15 14 13 13 13 11 10 10 10 9 9 10 11 11 9 9 10 11 11 12 12 13 14 12 13 17 16 15 14 11 10 10 8 8 7 5 4 4 2 1 1 1 2 2 1 1 0 1 1 2 2 2
24 23 20 19 20 20 20 18 16 15 13 11 8 5 5 6 6 5 6 6 7 8 10 11 12 13 13 14 14 15 16 16 16 16 15 15 14 14 13 11 10 10 10 10 11 12 12 11 12 13 14 13 13 13 13 14 14 13 14 16 15 15 12 10 12 11 9 9 6 5 5 4 2 2 1 2 2 2 2 1 1 1 1 1 2
23 24 22 21 22 22 20 18 17 16 15 13 9 6 7 7 6 6 6 6 6 6 7 9 11 12 11 12 13 14 15 15 16 17 17 15 15 15 13 11 10 9 9 11 11 13 14 14 14 14 15 15 14 16 16 15 15 14 13 14 15 15 14 12 12 11 9 10 9 8 7 5 4 3 3 3 2 2 3 3 2 0 1 1 1
24 25 25 26 25 23 21 18 17 16 15 13 10 8 9 9 8 7 6 5 5 5 6 8 10 11 11 11 13 13 14 15 15 15 16 15 15 15 13 11 9 9 10 11 11 13 16 16 16 15 15 14 14 17 19 17 16 15 13 13 13 14 15 15 14 12 9 8 9 10 10 9 8 7 6 5 4 4 4 4 3 3 2 1 1
23 23 25 26 25 22 20 17 15 15 14 12 10 9 11 12 10 8 6 5 5 5 6 6 8 10 10 11 12 12 13 14 14 14 14 15 14 13 12 10 10 10 11 11 11 13 15 16 17 16 15 13 11 14 19 19 17 16 14 13 12 10 11 12 14 14 13 10 10 10 10 10 10 10 10 9 7 7 6 4 4 4 4 2 1
21 21 23 24 23 21 20 17 15 16 15 13 12 13 13 13 11 9 8 6 6 7 6 5 5 7 8 9 10 11 11 12 12 13 13 13 13 12 11 11 11 12 11 12 11 12 14 16 17 16 15 14 11 11 16 18 17 16 15 13 12 11 10 10 11 13 14 14 14 13 11 10 10 9 11 12 11 10 9 7 5 5 4 3 2
21 21 23 24 23 23 21 18 18 19 18 17 16 16 15 14 13 11 10 8 7 6 4 4 5 6 7 7 8 9 10 10 11 13 13 13 13 12 12 12 12 12 11 11 11 11 14 16 17 16 15 15 13 11 13 14 13 13 12 12 11 11 11 11 10 10 12 13 15 15 13 12 12 11 10 11 13 13 12 11 9 7 7 7 6
23 22 24 24 22 21 21 22 22 22 20 19 20 19 16 14 14 13 11 10 8 6 5 4 5 6 7 8 9 9 8 8 8 11 12 13 13 13 13 13 12 12 11 11 10 10 13 15 17 17 16 16 15 13 12 11 11 10 9 9 9 9 9 10 10 10 11 11 12 12 13 14 15 15 13 10 10 11 12 13 12 10 10 9 9
24 22 23 23 22 22 23 23 22 21 20 19 19 19 16 12 12 14 12 10 8 5 4 4 4 5 7 8 9 9 8 8 8 8 9 11 12 13 13 12 11 11 10 10 10 11 13 15 17 18 18 18 16 14 13 12 10 8 6 6 7 7 7 8 9 9 9 10 12 13 13 13 14 16 17 14 11 11 11 12 12 11 11 11 11
23 21 22 24 25 25 23 22 21 21 19 17 17 17 15 11 11 12 12 10 8 7 5 4 4 6 7 8 9 8 9 9 8 7 7 8 10 11 11 10 9 9 9 9 10 12 14 15 17 18 18 18 16 14 13 11 9 7 5 6 6 5 5 6 6 6 6 7 10 13 14 14 13 14 16 16 14 13 12 12 12 11 11 12 12
24 21 23 27 28 25 22 22 22 21 19 18 17 16 14 12 10 11 11 9 9 9 6 5 6 7 8 10 10 10 10 10 9 8 7 8 9 9 9 8 8 8 8 8 9 12 13 15 16 17 17 17 16 14 14 12 11 9 6 5 6 5 4 4 3 2 2 2 3 7 12 13 13 12 13 15 16 17 15 14 13 12 11 11 13
25 23 25 29 28 25 23 22 22 21 19 18 17 15 14 14 13 14 14 12 11 11 9 9 10 11 10 11 12 12 12 11 9 8 8 7 7 8 9 9 8 8 8 7 9 11 12 13 15 16 16 16 16 15 15 14 13 12 9 7 6 5 4 4 3 0 0 1 2 1 3 7 9 10 11 12 14 16 16 15 16 16 13 11 12
27 25 25 29 28 25 23 22 23 22 19 18 18 15 15 14 14 15 15 14 14 12 11 11 13 14 13 13 13 13 13 11 9 8 7 7 6 7 9 9 9 9 8 7 8 10 11 12 14 15 16 16 16 16 15 15 14 13 11 9 7 4 3 3 2 1 1 1 2 3 2 2 4 6 8 9 9 9 10 11 12 13 13 11 11
29 26 25 27 27 26 23 23 24 22 20 18 17 16 15 13 12 13 14 14 13 12 11 11 14 15 14 14 13 14 13 12 10 9 7 7 8 7 9 9 9 9 8 7 7 8 10 11 11 13 13 14 15 15 15 15 14 12 10 10 9 6 3 2 2 3 3 2 3 4 3 2 2 3 4 4 5 5 6 8 8 8 9 9 9
30 28 26 26 27 27 24 23 24 22 19 18 17 16 15 13 12 13 13 13 13 11 12 13 14 15 15 15 15 15 14 12 12 11 9 8 7 7 7 7 7 8 8 7 7 7 7 7 7 8 8 8 9 10 10 10 10 9 9 9 9 8 6 6 6 6 5 3 3 2 1 1 1 1 1 1 3 3 4 5 7 8 9 9 8
30 29 27 26 27 28 26 23 23 22 19 18 18 17 14 11 12 14 14 13 12 12 14 14 14 14 14 14 14 14 13 11 11 13 12 9 8 7 7 7 6 7 8 6 5 5 5 5 5 5 4 3 5 6 5 6 6 6 6 7 7 7 7 7 7 6 4 2 1 2 3 2 1 0 1 2 3 3 4 5 5 6 7 8 7
31 29 28 27 27 28 27 26 24 22 19 18 19 18 14 12 13 15 15 15 15 15 14 13 13 13 12 13 13 12 12 11 11 13 13 12 11 10 9 9 8 7 7 6 6 5 5 5 4 4 4 4 5 4 3 3 3 2 3 3 4 5 5 6 6 5 4 3 4 4 4 4 4 4 5 5 4 4 4 3 4 4 5 7 7
33 31 30 29 29 29 29 28 26 24 22 21 21 19 16 15 15 17 17 18 18 17 15 14 14 13 13 13 13 13 12 11 11 12 13 12 11 10 8 9 11 11 9 8 7 6 5 4 3 1 2 4 6 5 4 4 4 2 2 2 2 2 3 4 4 4 3 3 4 5 6 7 9 8 6 5 3 2 1 1 2 3 4 7 9
Wind_Direction
168 164 159 154 154 152 150 148 143 139 137 141 145 145 145 144 141 137 133 129 129 130 131 130 125 123 123 125 127 128 127 126 124 122 120 118 114 112 110 108 108 109 114 117 119 121 124 124 121 123 129 140 145 146 141 139 135 128 129 124 121 117 109 108 111 104 89 81 82 79 75 74 78 81 80 77 78 77 77 79 80 81 80 78 76
163 161 157 153 154 151 149 147 142 139 137 142 146 147 147 146 144 140 136 131 131 129 130 132 129 125 122 122 124 126 126 123 122 120 117 115 112 110 108 107 108 110 113 112 112 114 122 126 121 121 123 132 142 146 144 142 137 132 134 131 129 122 113 112 109 101 91 86 83 78 76 72 73 76 78 78 81 81 79 80 82 82 81 79 76
159 157 155 152 153 150 149 145 141 139 138 143 147 148 148 149 147 143 138 133 133 130 130 132 132 131 127 121 122 125 126 123 120 119 117 113 112 111 110 109 110 112 116 112 105 107 113 122 123 122 120 128 137 141 143 143 139 138 137 135 132 125 119 115 111 105 94 87 82 76 73 71 71 73 77 80 81 80 78 79 81 82 83 82 78
157 154 154 152 152 151 148 145 142 141 140 145 148 149 150 151 149 146 140 135 133 130 131 131 132 135 132 125 121 123 125 124 119 119 117 114 112 111 112 111 112 114 116 113 105 104 103 112 124 125 123 125 131 134 139 141 137 138 135 133 132 130 127 122 118 113 100 88 83 76 68 65 68 73 78 81 80 79 79 79 81 82 84 85 82
155 154 155 153 153 152 149 147 144 143 142 145 148 150 152 152 150 148 143 137 134 132 133 132 132 133 134 130 126 122 120 124 120 119 119 117 115 113 115 114 115 115 117 117 114 110 95 105 121 127 128 124 125 132 136 136 134 134 134 131 132 136 136 131 127 126 110 95 85 73 65 61 61 66 76 81 80 79 80 80 80 80 81 85 85
156 155 155 154 154 153 150 147 145 143 142 144 148 151 152 152 151 149 145 140 135 133 134 133 133 135 135 133 131 125 123 125 120 120 121 121 119 117 117 116 117 117 118 119 117 114 93 100 114 117 123 122 122 131 133 134 135 135 135 133 134 137 138 137 132 138 119 100 86 70 64 59 55 54 65 76 80 79 80 80 80 79 78 82 84
157 155 154 154 153 152 151 147 145 142 142 146 149 151 152 152 151 150 148 142 137 134 134 134 134 137 137 136 135 130 129 127 121 120 121 122 120 120 119 118 117 118 121 119 120 122 103 96 110 111 116 119 119 127 132 134 137 138 137 135 134 133 136 138 132 154 122 101 86 68 63 55 52 49 54 71 78 78 78 80 81 82 80 80 83
157 155 154 153 153 153 152 148 144 142 143 147 150 152 152 152 151 152 150 143 138 135 134 133 133 135 137 136 133 128 126 124 121 120 120 121 119 123 125 125 125 124 125 124 126 127 119 99 99 98 103 116 119 125 133 137 140 141 139 134 132 133 137 140 143 161 106 95 86 67 62 53 48 46 52 69 76 77 77 78 81 83 83 80 82
159 156 155 154 154 154 153 149 145 143 143 147 150 151 152 153 153 153 150 145 139 137 134 131 129 132 134 131 127 121 120 119 119 119 118 118 117 122 128 134 133 131 132 137 139 130 131 107 85 84 90 109 116 127 135 140 143 140 138 134 135 138 141 153 158 130 86 86 84 65 57 50 45 46 57 73 77 80 78 78 81 85 85 83 82
160 156 156 155 155 156 154 150 145 143 142 145 149 149 150 152 153 152 149 145 141 138 133 129 128 130 130 125 122 118 118 117 116 116 114 112 111 112 118 129 130 132 133 146 154 138 132 91 71 92 99 106 114 129 138 141 143 139 136 136 136 139 153 168 149 108 90 84 76 61 48 43 48 52 67 79 81 83 81 79 80 86 87 85 84
158 157 156 155 156 158 156 150 144 141 140 142 146 147 147 148 150 150 147 144 142 138 133 130 129 129 126 123 121 119 116 114 114 113 111 109 108 109 113 120 123 127 128 133 141 139 138 107 76 99 107 116 117 130 142 143 141 140 136 136 135 146 174 168 131 112 104 85 71 60 42 38 51 63 77 87 88 86 86 83 80 85 89 90 88
158 158 156 156 158 159 156 149 142 140 140 140 141 142 143 146 146 145 143 141 139 136 133 131 130 128 125 124 121 118 114 112 113 112 112 110 109 111 112 114 115 116 121 127 135 145 152 158 148 123 117 128 125 130 145 146 142 141 136 135 138 163 185 155 129 129 112 90 76 62 43 40 52 70 92 98 97 91 90 91 88 87 89 93 92
157 158 157 157 158 159 156 147 143 141 140 139 137 138 139 141 140 140 140 138 138 136 133 130 129 127 124 124 121 117 114 112 112 113 115 113 112 113 111 111 112 111 114 122 132 142 151 165 179 198 164 142 138 132 144 150 145 142 138 136 145 175 186 148 140 143 119 102 84 57 41 40 46 82 122 113 106 103 98 97 95 92 90 92 93
156 158 158 159 159 159 154 147 144 142 142 139 136 135 134 136 135 137 136 135 135 134 131 129 127 125 125 123 121 119 117 115 112 115 116 115 117 118 114 111 113 112 111 118 122 121 123 131 147 196 196 169 152 137 142 153 151 144 140 139 148 179 182 151 152 151 129 110 85 43 38 40 40 95 134 125 117 118 112 104 99 97 94 93 92
157 158 160 161 159 157 153 149 146 143 142 138 136 134 133 133 133 134 133 133 133 132 130 128 128 127 128 125 125 124 121 119 116 118 119 120 123 125 120 112 116 111 111 119 114 108 111 110 99 107 183 186 161 146 142 154 156 147 142 142 153 180 180 160 163 155 136 116 92 51 49 45 43 116 140 132 130 130 123 113 106 103 99 97 94
159 159 162 162 158 156 152 150 148 144 142 139 140 138 137 136 135 135 132 134 133 132 131 130 131 129 131 129 130 131 128 124 120 121 121 124 126 130 123 113 120 114 111 119 117 113 116 109 95 79 94 163 160 152 147 154 158 151 144 146 157 181 180 166 167 153 139 124 109 48 40 40 45 143 150 141 145 142 133 122 114 109 104 103 100
161 161 162 160 158 156 153 151 149 145 143 142 143 142 141 139 137 137 136 138 137 135 134 133 134 133 134 132 133 135 133 129 124 122 121 125 126 131 130 122 132 127 113 117 126 124 124 116 108 87 74 118 145 153 151 154 160 155 148 148 160 180 178 163 158 149 142 133 146 339 356 24 77 162 159 150 153 155 148 131 120 115 110 107 106
165 166 161 159 158 157 156 153 150 147 146 145 145 145 143 141 140 141 141 142 141 140 139 137 136 136 137 135 136 137 135 130 125 125 123 126 131 138 145 142 145 142 127 120 134 135 134 125 116 103 80 108 134 149 151 153 160 159 150 148 161 176 174 163 152 139 129 104 302 326 3 31 143 170 169 160 161 170 166 141 125 121 117 112 111
170 171 162 159 159 159 159 154 154 151 150 148 148 148 145 145 144 146 147 146 147 146 145 141 139 141 142 139 138 137 135 131 128 129 128 133 140 146 153 159 162 162 152 136 145 150 148 137 119 100 89 110 128 144 147 152 159 159 150 148 162 174 174 166 146 120 91 20 336 341 352 12 158 182 182 172 169 177 175 154 134 128 124 118 117
169 174 165 161 162 162 161 157 158 154 153 151 151 152 150 150 149 152 153 153 153 153 152 148 147 147 148 146 142 140 136 135 133 130 131 141 149 152 159 169 178 185 176 157 154 162 164 152 129 102 97 110 127 140 144 153 157 155 148 146 161 173 174 169 144 107 79 56 17 13 11 14 163 207 204 189 177 180 184 168 146 138 132 127 127
165 175 170 165 165 165 165 162 162 159 158 156 156 156 155 157 157 160 160 161 162 162 161 158 159 157 157 153 146 145 142 142 139 134 137 148 154 155 164 180 192 199 188 170 152 158 169 165 152 119 111 114 129 138 143 154 157 152 146 143 156 168 170 168 143 109 90 71 21 24 31 28 11 224 214 201 186 184 192 183 160 147 139 137 138
162 172 171 169 169 169 169 169 168 167 165 164 165 164 163 164 165 168 170 172 173 172 171 169 169 168 168 161 152 152 150 153 148 141 148 156 160 158 166 183 190 193 184 167 144 149 166 171 166 136 122 121 130 134 142 156 158 152 145 136 146 159 163 162 138 112 98 55 348 10 27 27 24 203 204 201 195 192 195 194 175 157 146 145 147
165 171 170 171 175 174 173 175 177 176 175 175 174 174 172 171 174 178 180 183 182 180 180 179 177 178 178 170 164 159 156 164 159 153 161 165 168 167 171 179 180 178 173 160 152 160 167 167 163 143 127 119 123 129 140 157 160 153 145 134 139 155 162 162 139 120 111 42 326 348 4 14 27 171 190 199 200 198 201 197 185 172 153 150 155
161 166 165 174 182 179 176 178 184 185 184 186 185 186 183 181 184 186 188 192 191 189 190 189 185 186 186 181 181 175 173 177 174 170 173 176 179 180 180 178 177 170 164 158 160 169 172 170 165 149 131 120 120 125 135 155 163 160 154 146 142 154 166 169 144 128 137 137 315 336 353 10 24 182 187 196 200 202 212 200 189 189 167 158 162
151 156 160 177 184 183 181 179 187 192 193 196 194 193 192 192 195 194 197 201 203 201 199 200 197 197 196 194 196 197 195 190 189 188 185 193 193 186 186 181 175 168 163 159 162 168 169 169 167 157 141 128 124 125 131 148 162 168 169 166 156 158 165 162 138 127 153 237 316 338 357 22 41 145 174 188 195 200 215 207 192 197 186 171 168
149 157 162 173 180 184 186 184 189 197 201 204 202 200 200 201 203 204 204 207 210 209 207 210 210 209 210 214 214 213 212 206 208 207 195 205 201 185 189 187 176 168 165 162 162 160 156 163 168 163 151 139 131 131 135 140 147 158 167 167 158 165 168 154 139 151 291 306 316 342 16 55 68 96 129 142 175 194 211 213 198 200 198 185 181
153 162 159 159 170 179 185 190 192 199 203 205 207 204 204 208 211 213 213 214 215 215 216 218 221 221 223 229 229 223 222 223 228 224 207 205 199 186 186 186 179 169 168 165 161 157 148 155 166 164 157 151 142 138 141 142 143 145 150 156 156 172 177 173 193 224 295 306 305 327 39 75 79 89 106 112 138 183 209 213 203 204 206 195 193
155 156 152 152 162 172 185 192 193 200 203 204 207 204 206 210 214 218 217 219 222 221 222 225 231 229 226 230 232 228 225 230 233 232 220 202 197 194 188 185 183 170 166 168 163 159 149 152 164 167 164 162 153 146 149 150 150 150 149 154 163 172 183 199 209 221 264 284 300 309 10 71 79 81 97 114 132 163 192 207 206 208 211 206 202
151 146 151 160 162 171 184 190 192 198 202 204 207 205 207 210 215 220 219 222 226 228 225 225 232 230 229 230 229 228 226 228 229 230 218 200 197 200 199 193 187 172 165 172 170 166 158 153 163 175 179 177 167 157 156 159 160 157 153 159 170 180 202 215 202 199 223 254 292 320 345 61 73 70 81 108 132 151 172 192 201 209 215 214 213
147 148 160 166 167 173 180 184 189 195 199 204 209 209 209 211 216 219 223 225 226 229 224 219 227 231 232 231 228 225 225 227 226 226 213 199 197 197 200 198 190 175 168 177 177 174 171 162 160 175 187 189 184 170 163 173 174 165 160 170 183 193 212 216 197 191 214 252 266 55 53 53 81 84 78 88 107 127 154 176 187 202 213 217 220
155 163 169 167 166 170 174 179 185 191 195 199 208 212 210 212 215 220 230 231 226 228 223 216 221 229 233 231 228 227 226 227 225 222 210 199 198 194 195 193 187 179 173 182 183 183 182 175 167 172 181 183 185 181 179 188 189 184 180 182 189 193 206 211 208 212 227 242 228 167 65 58 70 84 79 88 97 102 129 153 171 187 198 208 216
166 170 170 166 163 165 170 176 179 183 188 190 198 202 196 200 211 225 237 236 232 233 228 221 215 222 232 231 228 227 224 222 221 219 210 203 198 192 195 192 187 182 178 185 190 196 193 182 175 175 177 177 179 179 186 195 199 196 191 189 191 193 203 211 218 230 231 226 214 221 284 54 42 52 59 73 107 133 126 127 153 174 172 183 197
168 169 168 163 161 164 167 169 169 174 178 176 176 174 169 165 185 221 238 236 238 241 240 237 222 219 228 231 228 226 222 218 218 219 213 211 203 196 199 200 195 187 181 188 195 207 204 189 183 185 186 186 186 182 186 196 199 197 195 196 197 196 205 218 226 229 224 226 220 214 206 141 14 16 38 39 62 104 129 128 143 163 156 160 181
165 166 163 159 161 164 167 168 164 165 168 169 173 173 170 158 168 208 233 239 243 247 248 243 232 227 228 230 230 227 226 221 218 220 217 217 212 205 210 211 203 195 195 200 201 211 214 204 199 199 199 199 199 197 197 200 200 197 198 202 204 200 203 218 229 225 217 220 214 198 197 187 227 287 3 21 16 19 18 144 148 166 152 148 181
164 164 159 161 166 166 167 169 165 165 171 181 191 194 192 182 185 207 224 242 254 254 254 244 234 235 234 231 229 227 228 225 222 222 219 221 218 215 221 219 206 200 208 210 206 210 215 217 214 208 207 206 206 210 211 209 208 205 202 204 207 204 202 212 224 227 222 218 212 195 195 196 211 252 302 341 350 359 3 2 47 130 152 173 198
165 164 162 167 171 169 167 170 170 174 180 188 199 207 203 196 202 217 231 252 258 245 246 247 242 240 234 228 228 230 230 230 228 224 221 223 221 218 222 217 209 208 211 212 209 210 214 219 218 209 208 210 210 215 216 212 212 212 208 207 209 207 205 208 213 221 227 225 222 212 203 199 204 229 268 291 314 334 340 334 328 118 133 171 211
162 162 165 171 173 170 169 172 177 185 192 197 203 209 202 199 206 219 233 244 242 230 228 237 239 236 232 227 226 229 234 235 232 228 228 227 220 219 221 216 218 217 208 210 212 213 215 217 217 211 209 213 215 217 215 210 211 213 213 214 217 215 213 214 214 214 218 222 221 220 218 214 212 221 235 240 252 277 304 314 299 282 288 309 289
160 161 165 171 171 171 170 175 186 194 201 203 202 203 201 200 201 207 214 203 192 192 198 213 224 234 239 233 225 223 227 231 231 233 234 229 221 221 222 217 222 221 214 217 218 215 215 213 215 212 211 218 223 218 212 209 211 214 217 219 223 227 225 228 227 222 219 218 214 216 221 223 223 229 231 228 229 241 257 270 271 275 288 301 295
163 161 163 166 168 171 172 178 191 194 198 201 196 195 200 201 196 192 198 191 168 164 165 175 200 226 238 231 222 216 218 223 227 230 233 228 223 223 225 223 226 227 226 227 220 213 211 208 211 212 211 216 223 217 209 210 214 214 218 222 223 227 230 234 236 230 227 227 225 222 223 225 225 230 237 238 234 233 234 238 247 257 273 280 279
165 162 162 165 169 172 174 181 188 190 194 196 192 192 196 196 192 185 185 188 184 185 191 189 187 198 211 209 206 211 215 219 222 224 227 225 224 229 232 233 233 233 233 229 221 213 206 204 209 214 214 215 217 214 206 207 211 209 213 219 221 226 232 235 236 232 232 237 238 236 234 233 230 229 237 242 242 240 234 231 236 242 251 259 263
169 168 170 173 177 177 179 181 182 187 188 185 185 189 190 184 182 181 181 188 197 218 233 230 220 205 201 197 195 202 206 210 219 222 225 225 228 236 239 238 237 234 233 228 222 216 206 204 210 214 217 218 214 209 203 200 202 204 209 215 221 228 235 238 238 237 239 242 246 246 244 242 241 239 239 237 237 238 236 233 236 240 244 248 250
178 182 185 184 182 180 179 177 176 178 175 169 170 174 179 179 179 181 184 187 191 210 219 215 233 228 216 207 202 207 208 210 217 220 225 229 231 234 235 234 232 231 233 229 222 216 207 205 212 215 217 220 215 206 203 200 199 210 224 231 235 235 235 240 244 248 251 251 248 246 246 247 248 247 244 238 228 224 226 233 239 244 249 251 249
185 190 191 185 181 180 179 177 174 170 164 160 159 162 172 181 184 185 188 190 185 190 196 190 211 225 222 214 209 215 224 226 224 222 229 233 233 230 228 229 227 224 227 227 222 216 211 208 213 217 218 222 219 209 205 206 216 236 256 257 248 238 236 241 252 260 266 267 256 245 242 242 245 247 247 244 237 227 222 226 235 245 254 259 258
191 193 190 185 182 181 182 180 173 166 161 161 161 163 168 175 184 189 192 192 185 187 198 203 211 217 213 208 205 206 220 231 227 225 234 237 232 225 225 228 220 213 212 214 214 215 216 213 214 217 219 222 223 217 213 219 235 251 266 261 243 235 228 224 240 267 274 293 279 251 241 240 244 249 250 250 248 242 235 230 234 240 249 259 262
195 196 191 187 184 184 185 182 175 170 168 167 168 170 170 177 189 190 190 193 190 190 198 201 202 205 199 191 190 189 201 218 220 220 229 236 226 208 210 211 199 196 193 190 195 201 207 210 213 217 219 223 225 225 227 234 246 255 259 251 238 233 216 213 215 175 20 23 36 2 245 241 249 258 262 265 264 259 253 248 245 244 246 255 261
197 199 196 192 188 186 185 182 180 180 179 175 176 181 183 190 200 200 201 204 199 195 198 193 185 188 187 179 176 178 188 203 214 220 217 214 207 192 197 198 190 189 179 171 177 183 189 199 209 216 220 224 227 231 235 242 250 255 255 247 242 241 215 211 212 204 336 15 33 22 7 266 254 262 270 279 285 280 274 267 259 254 253 258 264
197 200 200 198 193 189 185 184 185 188 189 184 182 188 194 203 217 219 217 219 215 203 190 177 172 177 180 178 176 177 186 198 211 219 209 201 203 198 197 197 195 192 181 175 178 179 183 190 199 208 215 221 227 235 241 246 251 251 249 243 240 243 239 238 243 259 289 309 320 330 328 304 286 270 273 285 287 277 272 271 264 252 251 257 265
197 201 203 202 198 193 189 188 190 193 197 193 189 193 199 207 222 224 219 226 229 204 175 166 168 172 177 182 184 184 191 199 206 210 202 193 198 201 205 206 202 194 184 181 182 181 182 182 183 188 197 207 216 226 232 237 242 241 239 236 234 239 246 256 266 271 279 294 322 326 264 273 305 288 285 275 270 264 263 277 268 251 248 253 255
199 203 207 206 203 198 194 193 194 198 202 198 195 197 199 205 220 221 217 224 219 189 170 167 169 169 171 179 186 190 194 196 196 200 198 193 198 205 209 209 202 195 195 196 192 186 185 182 166 148 145 164 188 199 208 221 229 229 228 224 224 233 243 253 261 261 260 248 181 191 226 228 193 222 299 262 267 299 320 334 320 287 272 266 255
203 206 210 211 209 205 202 200 200 202 204 202 200 198 192 197 215 220 221 219 201 179 172 173 171 166 164 166 172 175 180 182 185 192 197 198 205 213 212 206 199 192 194 200 205 206 201 189 165 130 111 109 121 136 151 170 175 182 198 203 210 224 236 246 253 248 240 228 209 212 227 238 257 279 287 282 299 335 340 329 313 296 281 266 251
204 208 212 214 214 212 208 205 203 203 205 204 202 198 190 193 210 219 221 212 192 182 180 178 171 164 161 159 157 156 155 160 169 179 188 193 199 207 208 208 208 208 210 215 222 226 222 216 213 215 152 127 120 121 128 127 116 115 135 160 191 222 243 253 256 248 238 239 247 254 262 276 287 292 293 296 312 340 345 221 242 249 250 247 241
Height
1506 1508 1510 1512 1514 1514 1516 1516 1515 1515 1516 1517 1519 1521 1522 1524 1525 1526 1527 1528 1529 1530 1530 1531 1532 1532 1533 1533 1534 1534 1534 1535 1535 1536 1536 1537 1537 1537 1538 1538 1538 1539 1539 1539 1540 1540 1540 1540 1540 1540 1541 1542 1542 1543 1544 1545 1545 1546 1546 1546 1547 1547 1547 1547 1548 1548 1548 1548 1548 1548 1547 1547 1546 1546 1545 1545 1545 1545 1544 1544 1543 1543 1543 1542 1542
1506 1509 1510 1512 1514 1515 1517 1516 1516 1516 1516 1518 1519 1521 1522 1524 1525 1527 1528 1529 1530 1530 1531 1532 1532 1533 1533 1534 1534 1535 1535 1536 1536 1537 1537 1538 1538 1538 1538 1539 1539 1540 1540 1540 1540 1540 1541 1541 1541 1541 1542 1542 1543 1544 1545 1545 1546 1546 1547 1547 1547 1547 1548 1548 1548 1549 1549 1549 1549 1549 1549 1548 1548 1547 1547 1546 1546 1546 1546 1545 1545 1544 1544 1544 1543
1507 1510 1511 1513 1515 1516 1517 1517 1516 1516 1517 1517 1519 1521 1522 1524 1525 1527 1528 1529 1530 1531 1532 1532 1533 1533 1534 1534 1535 1535 1536 1537 1537 1538 1538 1539 1539 1539 1539 1540 1540 1540 1541 1541 1541 1541 1541 1541 1542 1542 1543 1543 1544 1544 1545 1546 1546 1547 1547 1547 1548 1548 1549 1549 1549 1549 1550 1550 1551 1550 1550 1550 1549 1549 1548 1548 1548 1547 1547 1546 1546 1546 1545 1545 1545
1508 1510 1512 1513 1515 1516 1517 1516 1516 1515 1516 1517 1519 1520 1522 1523 1525 1527 1528 1529 1530 1531 1532 1533 1533 1534 1535 1535 1536 1536 1537 1538 1538 1539 1539 1539 1540 1540 1540 1540 1541 1541 1542 1542 1542 1542 1542 1542 1542 1543 1543 1544 1544 1545 1546 1546 1547 1548 1548 1548 1548 1549 1549 1549 1550 1550 1551 1552 1552 1552 1551 1551 1551 1550 1550 1549 1549 1548 1548 1548 1547 1547 1546 1546 1546
1508 1510 1511 1512 1514 1515 1516 1516 1515 1515 1516 1517 1519 1520 1522 1523 1525 1527 1528 1529 1530 1531 1532 1533 1534 1534 1535 1536 1536 1537 1538 1538 1539 1539 1540 1540 1540 1541 1541 1541 1541 1541 1542 1543 1543 1543 1542 1542 1543 1543 1543 1544 1545 1545 1546 1547 1547 1548 1548 1549 1549 1549 1549 1550 1550 1550 1551 1553 1553 1553 1552 1552 1552 1552 1551 1551 1550 1549 1549 1549 1548 1548 1548 1547 1547
1508 1509 1510 1511 1514 1515 1516 1516 1516 1516 1517 1518 1519 1521 1522 1524 1525 1527 1528 1530 1531 1532 1532 1533 1534 1535 1536 1536 1537 1537 1538 1539 1539 1540 1540 1541 1541 1541 1541 1542 1542 1542 1542 1543 1544 1544 1543 1543 1543 1543 1544 1545 1545 1546 1546 1547 1548 1548 1549 1549 1549 1549 1549 1550 1550 1550 1552 1554 1554 1554 1554 1553 1553 1553 1553 1552 1551 1551 1550 1550 1550 1549 1549 1549 1548
1511 1510 1511 1513 1514 1516 1517 1517 1517 1517 1517 1518 1520 1522 1523 1525 1526 1527 1529 1530 1531 1532 1533 1534 1534 1535 1536 1537 1537 1538 1539 1539 1540 1540 1541 1541 1542 1542 1542 1542 1542 1543 1543 1544 1544 1545 1544 1544 1544 1544 1544 1545 1546 1546 1547 1547 1548 1549 1549 1549 1549 1550 1550 1550 1550 1550 1552 1554 1554 1555 1555 1554 1555 1555 1554 1553 1553 1552 1551 1551 1551 1551 1550 1550 1549
1514 1513 1514 1514 1516 1517 1518 1517 1517 1517 1518 1519 1521 1522 1524 1525 1527 1528 1529 1530 1532 1532 1533 1534 1535 1536 1536 1537 1538 1538 1539 1539 1540 1541 1541 1542 1542 1543 1543 1543 1543 1543 1544 1544 1544 1545 1545 1545 1545 1545 1545 1546 1547 1547 1547 1548 1549 1549 1549 1550 1550 1550 1550 1550 1550 1550 1552 1555 1555 1555 1556 1556 1556 1556 1556 1555 1554 1554 1553 1552 1552 1552 1551 1551 1551
1513 1513 1514 1515 1516 1517 1518 1518 1517 1518 1518 1520 1521 1523 1524 1526 1528 1529 1530 1531 1532 1533 1534 1534 1535 1536 1537 1538 1538 1539 1539 1539 1540 1541 1541 1542 1543 1543 1543 1544 1544 1544 1544 1545 1545 1545 1545 1545 1546 1546 1546 1546 1547 1548 1548 1549 1549 1550 1550 1550 1550 1550 1550 1550 1550 1552 1553 1555 1555 1555 1556 1557 1557 1557 1557 1557 1556 1555 1554 1554 1553 1553 1553 1552 1552
1511 1512 1513 1514 1516 1518 1518 1518 1518 1518 1519 1521 1522 1523 1525 1526 1528 1529 1531 1532 1533 1533 1534 1535 1536 1537 1537 1538 1538 1539 1539 1540 1540 1541 1541 1542 1543 1543 1544 1544 1544 1545 1545 1545 1545 1546 1546 1546 1546 1546 1546 1547 1548 1548 1549 1550 1550 1551 1551 1551 1551 1551 1551 1550 1551 1553 1554 1555 1555 1556 1557 1557 1558 1558 1558 1558 1557 1556 1555 1555 1555 1554 1554 1553 1553
1511 1512 1513 1514 1516 1518 1519 1519 1518 1519 1519 1521 1522 1523 1525 1527 1528 1529 1531 1532 1533 1534 1534 1535 1536 1537 1538 1539 1539 1539 1540 1540 1540 1541 1541 1542 1543 1543 1544 1544 1545 1545 1545 1545 1545 1546 1546 1546 1546 1547 1547 1547 1548 1549 1550 1550 1551 1552 1552 1552 1552 1552 1551 1551 1553 1554 1554 1555 1556 1556 1557 1558 1558 1559 1559 1558 1558 1558 1556 1556 1556 1555 1555 1554 1554
1509 1511 1512 1514 1517 1519 1520 1519 1519 1519 1520 1521 1522 1524 1525 1527 1528 1530 1531 1532 1533 1534 1535 1536 1536 1538 1538 1539 1539 1540 1540 1541 1541 1541 1541 1542 1543 1544 1544 1545 1545 1545 1545 1545 1545 1546 1546 1546 1547 1547 1547 1547 1548 1549 1550 1550 1551 1552 1553 1553 1553 1552 1551 1553 1554 1554 1555 1555 1556 1557 1558 1558 1559 1559 1559 1559 1559 1559 1558 1557 1557 1556 1556 1556 1555
1508 1510 1512 1514 1517 1519 1520 1520 1519 1519 1520 1521 1523 1524 1526 1527 1529 1530 1531 1532 1533 1534 1535 1536 1537 1538 1538 1539 1540 1540 1541 1541 1541 1541 1541 1542 1543 1544 1544 1545 1545 1545 1545 1545 1545 1545 1546 1546 1547 1547 1547 1547 1548 1549 1550 1551 1552 1552 1553 1554 1553 1552 1552 1554 1554 1554 1555 1555 1556 1557 1558 1559 1559 1559 1560 1559 1559 1559 1559 1558 1557 1557 1557 1557 1556
1508 1510 1513 1515 1517 1520 1521 1520 1520 1520 1521 1522 1523 1525 1526 1527 1529 1530 1531 1532 1533 1534 1535 1536 1537 1538 1539 1539 1540 1541 1541 1542 1542 1542 1542 1542 1543 1544 1544 1545 1545 1545 1545 1546 1546 1546 1546 1546 1546 1547 1547 1547 1548 1549 1550 1551 1552 1553 1554 1554 1554 1552 1553 1554 1555 1555 1555 1556 1556 1557 1558 1559 1559 1560 1560 1560 1560 1560 1560 1559 1559 1558 1558 1558 1557
1508 1511 1514 1516 1518 1520 1521 1521 1521 1521 1522 1523 1524 1525 1526 1528 1529 1530 1531 1532 1533 1534 1535 1536 1537 1538 1539 1540 1540 1541 1542 1542 1542 1543 1543 1543 1543 1544 1544 1545 1545 1546 1546 1546 1546 1546 1546 1546 1546 1546 1547 1547 1548 1549 1550 1551 1552 1553 1554 1554 1554 1553 1553 1554 1555 1555 1556 1556 1557 1557 1558 1559 1559 1560 1560 1560 1560 1560 1560 1560 1560 1559 1558 1558 1558
1509 1512 1514 1517 1519 1520 1521 1522 1522 1522 1523 1524 1525 1526 1527 1528 1529 1530 1531 1532 1533 1534 1535 1537 1538 1538 1539 1540 1541 1542 1542 1543 1543 1543 1543 1544 1544 1544 1545 1545 1546 1546 1546 1546 1546 1546 1546 1546 1546 1546 1546 1547 1548 1549 1549 1551 1552 1553 1554 1554 1553 1553 1553 1554 1555 1556 1556 1557 1557 1558 1559 1559 1560 1560 1560 1560 1560 1561 1561 1560 1560 1560 1559 1559 1559
1512 1513 1516 1518 1519 1521 1521 1522 1523 1523 1524 1525 1526 1527 1528 1529 1530 1531 1532 1533 1534 1535 1536 1537 1538 1539 1540 1540 1541 1542 1542 1543 1543 1544 1544 1544 1544 1545 1545 1546 1546 1546 1546 1546 1546 1546 1546 1546 1546 1546 1546 1547 1547 1548 1549 1550 1552 1553 1553 1554 1553 1553 1554 1555 1555 1556 1557 1557 1558 1559 1559 1560 1560 1560 1560 1560 1561 1561 1561 1561 1561 1561 1560 1560 1559
1517 1516 1516 1519 1520 1521 1521 1522 1523 1524 1525 1526 1527 1528 1529 1530 1531 1532 1533 1534 1535 1536 1537 1538 1538 1539 1540 1541 1541 1542 1543 1543 1544 1544 1544 1544 1545 1545 1545 1546 1546 1546 1547 1546 1546 1546 1546 1546 1546 1546 1546 1547 1547 1548 1549 1550 1552 1553 1553 1554 1553 1553 1554 1555 1556 1557 1557 1558 1559 1560 1560 1560 1560 1560 1560 1560 1561 1561 1562 1561 1561 1561 1561 1561 1560
1520 1520 1519 1520 1520 1521 1522 1523 1524 1525 1526 1528 1529 1530 1530 1531 1532 1533 1533 1534 1535 1536 1537 1538 1539 1539 1540 1541 1542 1542 1543 1543 1544 1544 1544 1545 1545 1545 1545 1546 1546 1546 1547 1547 1547 1546 1546 1546 1546 1546 1546 1547 1547 1548 1549 1549 1551 1553 1554 1554 1553 1553 1554 1555 1556 1557 1558 1559 1559 1560 1560 1560 1560 1560 1560 1561 1561 1561 1562 1562 1561 1561 1561 1561 1561
1521 1523 1521 1521 1522 1522 1523 1524 1526 1527 1528 1529 1530 1531 1532 1532 1533 1533 1534 1535 1536 1536 1537 1538 1539 1540 1540 1541 1542 1542 1543 1543 1544 1544 1544 1544 1545 1545 1545 1546 1546 1546 1546 1546 1547 1546 1546 1546 1546 1546 1546 1547 1547 1547 1548 1549 1551 1553 1554 1554 1553 1554 1555 1555 1556 1558 1558 1559 1560 1560 1560 1560 1560 1560 1560 1561 1561 1561 1562 1562 1562 1561 1562 1562 1562
1520 1524 1523 1523 1524 1524 1525 1526 1527 1528 1530 1530 1531 1532 1532 1533 1533 1534 1535 1535 1536 1537 1537 1538 1539 1539 1540 1541 1541 1542 1543 1543 1544 1544 1544 1544 1544 1545 1545 1545 1546 1546 1546 1546 1546 1547 1546 1546 1546 1546 1546 1547 1547 1547 1548 1549 1551 1553 1554 1554 1554 1555 1555 1555 1556 1557 1558 1559 1560 1560 1560 1560 1560 1560 1560 1561 1561 1561 1562 1562 1562 1562 1562 1562 1562
1519 1523 1524 1524 1525 1526 1527 1528 1528 1529 1530 1531 1532 1532 1533 1533 1534 1535 1535 1536 1536 1537 1537 1538 1539 1539 1540 1541 1542 1542 1543 1543 1543 1544 1544 1544 1544 1544 1545 1545 1545 1546 1546 1546 1547 1547 1547 1546 1546 1547 1546 1546 1547 1547 1548 1549 1551 1553 1554 1554 1554 1555 1556 1556 1556 1557 1558 1559 1559 1560 1560 1560 1560 1560 1560 1561 1561 1561 1562 1563 1562 1562 1562 1563 1563
1520 1522 1524 1526 1526 1527 1528 1528 1529 1529 1530 1531 1532 1533 1533 1534 1534 1535 1536 1537 1537 1538 1538 1539 1539 1540 1540 1541 1542 1542 1543 1543 1543 1544 1544 1544 1544 1544 1545 1545 1545 1545 1546 1546 1546 1547 1547 1547 1547 1547 1547 1547 1547 1547 1548 1549 1551 1553 1554 1555 1555 1555 1556 1556 1556 1557 1558 1558 1559 1559 1560 1560 1560 1560 1560 1560 1561 1561 1562 1563 1563 1563 1563 1563 1563
1520 1523 1525 1527 1527 1528 1528 1528 1529 1529 1530 1531 1532 1533 1534 1534 1534 1535 1536 1537 1537 1538 1539 1539 1540 1540 1541 1541 1542 1542 1543 1543 1543 1544 1544 1544 1544 1544 1545 1545 1545 1545 1546 1546 1546 1546 1546 1547 1547 1547 1547 1547 1547 1548 1549 1550 1551 1552 1554 1555 1555 1556 1556 1556 1557 1557 1558 1558 1558 1559 1559 1559 1559 1559 1560 1560 1560 1561 1562 1562 1563 1563 1563 1564 1564
1519 1523 1526 1527 1528 1528 1528 1528 1528 1529 1530 1531 1532 1533 1533 1533 1534 1535 1536 1537 1537 1538 1539 1539 1540 1540 1541 1541 1542 1542 1542 1543 1543 1543 1543 1543 1544 1544 1545 1545 1545 1545 1545 1545 1545 1546 1546 1546 1547 1547 1547 1547 1548 1548 1549 1550 1551 1552 1554 1555 1555 1555 1556 1556 1557 1558 1558 1558 1558 1558 1559 1559 1559 1559 1559 1559 1560 1561 1561 1562 1563 1563 1563 1564 1564
1518 1522 1524 1525 1527 1528 1528 1528 1528 1529 1530 1531 1532 1533 1533 1533 1534 1534 1535 1536 1537 1538 1539 1539 1540 1540 1541 1541 1541 1541 1542 1542 1543 1543 1543 1543 1544 1544 1545 1545 1546 1546 1545 1545 1545 1545 1546 1546 1547 1548 1548 1548 1548 1549 1550 1551 1552 1552 1553 1554 1555 1555 1555 1556 1557 1558 1558 1558 1558 1558 1559 1559 1559 1559 1559 1559 1559 1560 1561 1562 1562 1563 1563 1563 1564
1516 1518 1520 1522 1524 1525 1526 1527 1527 1528 1529 1531 1532 1533 1533 1533 1534 1535 1535 1536 1537 1538 1539 1539 1540 1540 1539 1539 1540 1541 1541 1542 1542 1542 1542 1543 1543 1544 1545 1545 1546 1546 1546 1546 1546 1546 1546 1546 1547 1548 1548 1548 1549 1549 1550 1551 1552 1552 1553 1554 1555 1555 1555 1556 1557 1558 1558 1558 1558 1558 1559 1559 1559 1559 1559 1559 1559 1560 1561 1561 1562 1562 1563 1563 1563
1512 1514 1517 1518 1520 1522 1524 1525 1526 1527 1529 1530 1531 1532 1533 1534 1534 1535 1536 1536 1537 1538 1539 1539 1539 1539 1538 1538 1539 1540 1540 1540 1540 1541 1541 1542 1543 1544 1544 1545 1545 1545 1546 1546 1546 1546 1546 1546 1547 1548 1548 1549 1549 1549 1550 1551 1552 1552 1553 1554 1555 1555 1555 1556 1557 1558 1558 1558 1558 1559 1559 1559 1559 1559 1559 1559 1559 1560 1560 1561 1561 1562 1562 1563 1563
1510 1512 1514 1515 1516 1519 1521 1523 1525 1526 1528 1529 1530 1532 1533 1534 1534 1535 1536 1536 1537 1538 1539 1539 1538 1538 1538 1538 1539 1539 1539 1539 1539 1540 1541 1542 1542 1543 1544 1544 1545 1545 1545 1545 1546 1546 1546 1547 1547 1548 1549 1549 1549 1550 1550 1551 1552 1553 1553 1554 1554 1554 1555 1556 1557 1557 1558 1558 1558 1558 1559 1559 1559 1559 1559 1559 1559 1559 1559 1560 1560 1561 1562 1562 1563
1509 1510 1511 1512 1513 1516 1519 1521 1523 1525 1527 1528 1530 1531 1533 1534 1534 1535 1536 1536 1537 1537 1537 1538 1537 1537 1537 1538 1538 1538 1538 1538 1539 1539 1540 1541 1542 1543 1543 1544 1544 1544 1544 1545 1545 1546 1547 1547 1547 1548 1549 1549 1550 1550 1550 1551 1552 1553 1554 1554 1554 1554 1555 1556 1556 1557 1557 1558 1558 1558 1559 1559 1559 1559 1559 1559 1559 1559 1559 1559 1560 1560 1561 1561 1562
1507 1509 1510 1511 1513 1515 1518 1521 1523 1524 1526 1528 1530 1531 1533 1534 1535 1535 1535 1536 1536 1535 1536 1538 1537 1536 1535 1537 1538 1538 1538 1538 1538 1539 1540 1541 1541 1542 1543 1543 1544 1544 1544 1544 1545 1546 1547 1547 1547 1548 1549 1550 1550 1550 1550 1551 1552 1553 1554 1555 1555 1555 1555 1556 1556 1557 1557 1557 1558 1558 1559 1559 1559 1559 1559 1560 1560 1560 1560 1560 1560 1560 1560 1560 1561
1506 1508 1511 1511 1513 1516 1519 1521 1523 1524 1526 1528 1530 1531 1533 1534 1535 1535 1535 1536 1536 1534 1536 1537 1537 1536 1535 1536 1537 1537 1538 1538 1537 1538 1539 1540 1541 1542 1542 1543 1543 1544 1544 1544 1545 1546 1547 1547 1547 1548 1548 1549 1550 1550 1550 1551 1552 1553 1554 1555 1555 1555 1555 1555 1556 1556 1557 1557 1557 1558 1558 1558 1559 1559 1559 1559 1560 1560 1560 1560 1560 1560 1560 1560 1560
1507 1509 1512 1512 1514 1517 1519 1521 1523 1525 1527 1528 1530 1531 1533 1534 1534 1534 1534 1535 1536 1535 1535 1536 1536 1536 1535 1535 1536 1536 1537 1537 1537 1538 1539 1540 1540 1541 1542 1542 1543 1543 1544 1544 1545 1545 1546 1546 1547 1547 1548 1548 1549 1550 1550 1551 1552 1553 1554 1554 1555 1555 1555 1555 1556 1556 1556 1556 1557 1557 1558 1558 1558 1558 1559 1559 1560 1560 1560 1560 1560 1560 1560 1560 1560
1508 1510 1512 1513 1515 1518 1520 1521 1523 1525 1527 1529 1530 1531 1533 1533 1534 1534 1534 1535 1536 1535 1535 1535 1536 1536 1535 1535 1535 1536 1536 1536 1537 1537 1538 1539 1540 1540 1541 1541 1542 1543 1543 1544 1544 1545 1545 1546 1546 1547 1547 1548 1549 1550 1550 1551 1552 1552 1553 1554 1554 1555 1555 1555 1555 1556 1556 1556 1557 1557 1557 1558 1558 1558 1559 1559 1560 1560 1560 1560 1560 1560 1560 1560 1560
1508 1510 1512 1514 1516 1519 1520 1522 1524 1526 1528 1529 1531 1532 1533 1534 1534 1535 1535 1535 1535 1535 1534 1534 1535 1535 1535 1535 1535 1536 1536 1536 1537 1537 1538 1538 1539 1539 1539 1540 1541 1542 1543 1543 1543 1544 1544 1545 1546 1546 1547 1548 1549 1550 1550 1551 1552 1552 1553 1553 1554 1554 1555 1555 1555 1555 1556 1556 1556 1557 1557 1557 1558 1558 1559 1559 1559 1560 1560 1560 1560 1560 1560 1560 1560
1509 1511 1513 1515 1517 1519 1521 1523 1525 1527 1528 1530 1532 1532 1533 1534 1534 1535 1535 1535 1535 1535 1534 1533 1534 1535 1535 1536 1536 1536 1536 1536 1536 1537 1537 1538 1538 1539 1539 1539 1540 1541 1542 1542 1542 1543 1543 1544 1545 1546 1547 1548 1548 1549 1550 1551 1551 1552 1552 1553 1553 1553 1554 1554 1554 1554 1555 1555 1556 1556 1557 1557 1557 1558 1558 1559 1559 1559 1560 1560 1560 1560 1560 1560 1560
1510 1512 1513 1515 1518 1519 1521 1524 1525 1527 1529 1531 1532 1532 1533 1533 1534 1534 1535 1535 1535 1535 1534 1534 1534 1535 1535 1536 1537 1537 1537 1536 1537 1537 1537 1537 1538 1539 1539 1539 1539 1540 1540 1541 1541 1542 1543 1544 1545 1546 1547 1547 1548 1549 1549 1550 1551 1551 1552 1552 1552 1552 1553 1553 1553 1553 1554 1554 1555 1555 1556 1556 1557 1557 1558 1558 1558 1559 1559 1559 1560 1560 1560 1560 1560
1510 1512 1513 1516 1518 1520 1522 1524 1525 1527 1528 1530 1531 1531 1532 1533 1533 1533 1533 1534 1534 1535 1535 1535 1534 1535 1535 1536 1537 1537 1537 1537 1537 1537 1537 1537 1538 1538 1539 1538 1539 1539 1539 1540 1540 1541 1542 1543 1544 1545 1546 1547 1548 1548 1549 1550 1550 1551 1551 1552 1552 1552 1552 1552 1552 1553 1553 1554 1554 1555 1555 1555 1556 1556 1557 1557 1557 1558 1558 1559 1559 1559 1560 1560 1560
1511 1512 1514 1516 1518 1520 1522 1523 1525 1526 1528 1529 1530 1531 1532 1532 1532 1532 1532 1533 1534 1534 1535 1535 1535 1535 1535 1535 1536 1537 1538 1538 1538 1538 1538 1538 1538 1538 1538 1538 1538 1538 1538 1539 1539 1540 1541 1542 1543 1544 1545 1546 1547 1548 1548 1549 1550 1550 1551 1551 1552 1552 1552 1552 1552 1552 1553 1553 1553 1554 1554 1555 1555 1555 1556 1557 1557 1557 1557 1558 1558 1558 1559 1559 1560
1510 1512 1514 1516 1518 1520 1522 1523 1525 1526 1527 1528 1529 1529 1530 1531 1532 1531 1531 1532 1532 1533 1534 1534 1535 1535 1535 1535 1536 1537 1538 1538 1539 1539 1539 1538 1538 1538 1538 1538 1537 1537 1537 1538 1538 1539 1540 1541 1543 1544 1545 1546 1547 1547 1548 1548 1549 1550 1550 1551 1551 1551 1552 1552 1552 1552 1553 1553 1553 1553 1553 1553 1554 1554 1555 1555 1556 1556 1557 1557 1557 1557 1558 1558 1559
1510 1512 1514 1516 1518 1520 1522 1523 1524 1526 1527 1528 1528 1528 1529 1530 1531 1531 1531 1531 1532 1533 1533 1533 1533 1534 1535 1535 1536 1537 1538 1538 1539 1539 1539 1538 1538 1537 1537 1537 1536 1537 1537 1537 1537 1538 1539 1540 1542 1543 1544 1545 1546 1546 1547 1548 1549 1549 1550 1550 1551 1551 1551 1551 1552 1552 1552 1552 1552 1552 1552 1552 1553 1553 1553 1554 1555 1555 1556 1556 1556 1557 1557 1557 1558
1510 1512 1514 1516 1518 1520 1522 1523 1524 1526 1527 1528 1528 1528 1529 1529 1529 1530 1530 1531 1532 1532 1532 1532 1532 1533 1534 1535 1536 1537 1538 1539 1539 1539 1539 1538 1538 1538 1537 1537 1537 1537 1537 1537 1537 1538 1539 1540 1542 1543 1544 1544 1545 1545 1546 1547 1548 1549 1549 1550 1550 1550 1550 1550 1551 1551 1551 1551 1551 1551 1552 1552 1552 1552 1552 1553 1554 1554 1554 1555 1556 1556 1556 1556 1556
1510 1512 1514 1516 1518 1520 1521 1523 1524 1525 1527 1528 1528 1529 1528 1529 1529 1529 1529 1530 1530 1531 1531 1532 1532 1532 1533 1534 1536 1537 1538 1538 1539 1539 1539 1539 1539 1538 1538 1538 1538 1537 1537 1537 1537 1538 1539 1540 1541 1542 1543 1543 1544 1544 1546 1547 1547 1548 1549 1549 1549 1549 1549 1549 1550 1550 1550 1550 1550 1550 1551 1551 1551 1552 1552 1552 1553 1553 1553 1553 1554 1554 1555 1555 1555
1510 1511 1513 1515 1517 1519 1521 1522 1523 1525 1526 1527 1528 1528 1528 1528 1529 1529 1529 1529 1529 1530 1530 1531 1532 1532 1534 1534 1535 1536 1537 1538 1539 1539 1539 1539 1539 1539 1539 1538 1538 1538 1537 1537 1537 1538 1539 1539 1540 1542 1542 1542 1542 1544 1545 1546 1546 1547 1548 1548 1548 1548 1548 1549 1549 1549 1549 1549 1549 1549 1550 1550 1551 1551 1552 1552 1552 1552 1552 1552 1552 1552 1553 1554 1554
1509 1511 1513 1515 1517 1519 1520 1522 1523 1524 1525 1526 1527 1527 1527 1528 1528 1529 1529 1529 1529 1530 1530 1531 1531 1532 1534 1535 1535 1536 1536 1537 1538 1539 1539 1539 1539 1539 1539 1539 1538 1538 1538 1537 1537 1538 1538 1539 1540 1541 1541 1542 1542 1543 1544 1545 1546 1546 1547 1547 1547 1547 1547 1548 1548 1549 1549 1549 1549 1549 1549 1550 1550 1551 1551 1551 1551 1550 1551 1550 1551 1551 1551 1551 1552
1509 1511 1513 1515 1517 1519 1520 1521 1522 1523 1524 1525 1526 1526 1526 1527 1528 1529 1529 1530 1530 1531 1531 1531 1532 1533 1534 1534 1535 1535 1536 1537 1537 1538 1539 1540 1540 1539 1539 1539 1539 1539 1538 1538 1538 1538 1538 1539 1539 1540 1541 1541 1542 1543 1544 1545 1545 1546 1546 1547 1547 1547 1547 1548 1548 1548 1548 1549 1549 1549 1550 1550 1550 1550 1550 1550 1550 1550 1550 1550 1550 1550 1550 1550 1550
1508 1510 1512 1514 1517 1518 1520 1521 1522 1523 1524 1525 1525 1525 1526 1527 1528 1530 1531 1531 1531 1532 1533 1533 1533 1533 1533 1534 1534 1535 1535 1536 1537 1538 1539 1540 1540 1540 1540 1540 1540 1540 1539 1539 1539 1539 1539 1539 1539 1540 1540 1541 1542 1543 1544 1544 1545 1545 1546 1546 1546 1547 1547 1547 1548 1548 1548 1548 1549 1549 1549 1549 1549 1549 1549 1549 1549 1549 1549 1549 1549 1549 1549 1549 1549
1507 1509 1511 1513 1515 1518 1519 1520 1521 1522 1523 1524 1525 1525 1526 1527 1529 1531 1532 1533 1533 1534 1534 1534 1533 1533 1533 1534 1534 1535 1535 1536 1537 1538 1539 1540 1541 1541 1541 1541 1541 1541 1540 1540 1540 1539 1539 1539 1540 1540 1541 1541 1542 1543 1543 1544 1544 1545 1545 1545 1546 1546 1546 1547 1547 1547 1547 1548 1548 1548 1548 1548 1548 1548 1548 1548 1549 1549 1549 1549 1549 1549 1549 1548 1548
1506 1508 1509 1511 1514 1517 1518 1519 1520 1521 1523 1524 1525 1525 1526 1527 1529 1532 1533 1534 1535 1535 1534 1534 1534 1533 1533 1534 1534 1534 1535 1535 1536 1538 1540 1540 1541 1542 1542 1542 1541 1541 1541 1540 1540 1540 1540 1540 1540 1540 1541 1541 1542 1542 1543 1543 1543 1544 1544 1545 1545 1545 1546 1546 1546 1547 1547 1547 1548 1548 1548 1548 1548 1547 1547 1547 1548 1548 1548 1547 1547 1547 1547 1547 1547
1505 1507 1509 1511 1513 1515 1517 1518 1519 1521 1522 1523 1524 1525 1526 1526 1529 1531 1532 1534 1535 1535 1535 1535 1534 1534 1534 1534 1534 1534 1535 1535 1536 1537 1539 1540 1541 1542 1542 1542 1542 1541 1541 1541 1540 1540 1540 1540 1541 1541 1541 1542 1542 1542 1543 1543 1543 1544 1544 1544 1545 1545 1546 1546 1546 1547 1547 1547 1547 1548 1548 1548 1547 1547 1547 1547 1547 1547 1546 1545 1545 1545 1545 1546 1546
1505 1507 1509 1510 1512 1514 1515 1517 1518 1520 1521 1523 1524 1524 1525 1526 1528 1530 1531 1533 1534 1535 1535 1535 1535 1534 1534 1534 1534 1534 1535 1535 1536 1537 1539 1540 1541 1542 1542 1542 1542 1542 1541 1541 1541 1541 1541 1541 1541 1541 1542 1542 1542 1543 1543 1544 1544 1544 1544 1545 1545 1545 1546 1546 1547 1547 1547 1548 1548 1548 1548 1547 1547 1547 1547 1547 1547 1546 1545 1544 1544 1543 1544 1544 1544